SL-14 DEB, 45301

Orbit data source: Space-Track

SL-14 DEB, 45301 is space debris in LEO originally from a launch on Thu, 15 Aug 1991 UTC launched from the Plesetsk Missile And Space Complex (PKMTR). Debris objects in space refer to the collection of defunct objects orbiting the Earth. Examples of debris include non-operational satellites, rocket bodies, and fragments generated from explosions, collisions, or faulty payload assembly.

Loading next visibility...
Identifier
45301, 1991-056AP
Orbit
LEO
Country
Flag of CISCIS
Related business
Manufacturer
Unknown
Mission
Spacecraft
Bus & Motor
Unknown
Mass
Unknown
Launch date (UTC)
1991-08-15 (34 years ago)
Launch vehicle
Unknown
Launch site
Plesetsk Missile And Space Complex (PKMTR)
Object type
Payload
Rocket body
Debris
Shape & HBR
Unknown
Radar Cross Section
Medium (>0.1 m² and <1 m²)

Expand to show TLE details & history
Last TLE update: 18 hours ago

TLE from 18 hours ago
0 SL-14 DEB
1 45301U 91056AP  25242.25930878  .00005366  00000-0  64422-2 0  9991
2 45301  82.4886 244.8599 0180879 104.8888 257.2367 13.59977085273370
Epoch: 2025-08-30T06:13Z
TLE epoch observation values (Epoch: 2025-08-30T06:13:24.278Z)
Latitude
-0.00006°
Longitude
172.81256°
Altitude
1,070.569 km
Speed
7.301 km/s
True Right ascension
16h 19m 26s
True Declination
0° 00' 00"
Sunlit
Object was in daylight at epoch
Visualization orbit readout
Latitude
Unknown
Longitude
Unknown
Altitude
Unknown
Speed
Unknown
Apparent Right ascension
Unknown
Apparent Declination
Unknown
Sunlit
N/A
Visualization observer readout
Local Sidereal Time
15:54:34
Azimuth
Unknown
Elevation
Unknown
Doppler factor
Unknown
Orbital elements
Apogee altitude
1,167.013 km
Perigee altitude
898.91 km
Semi-major axis
7,411.098 km
Eccentricity
0.01809
Inclination
82.4886°
RAAN
244.8599°
Arg. of periapsis
104.8888°
True anomaly
255.22566°
Mean anomaly
257.2367°
Eccentric anomaly
256.23013°
Mean motion
3.40188 °/min
Orbital period
105.82 mins
BSTAR
0.0064422
Loading maneuver chart data...
Computing Atmospheric mass density...
Loading historical data...
Loading historical data...
Loading historical data...
Loading historical data...
Loading historical data...
Loading historical data...
Loading historical data...

Documentation

Showing up to 5 results
|